Time,TemperatureF,DewpointF,PressureIn,WindDirection,WindDirectionDegrees,WindSpeedMPH,WindSpeedGustMPH,Humidity,HourlyPrecipIn,Conditions,Clouds,dailyrainin,SoftwareType,DateUTC
2013-01-28 00:00:00,12.9,6.5,30.30,SSE,155,0.0,0.0,75,0.00,,SCT110,0.01,VWS V14.01,2013-01-28 05:00:00,
2013-01-28 00:02:00,13.0,6.6,30.30,SSE,155,0.0,0.0,75,0.00,,SCT110,0.01,VWS V14.01,2013-01-28 05:02:00,
2013-01-28 00:03:00,13.0,6.6,30.30,SSE,155,0.0,0.0,75,0.00,,SCT110,0.00,VWS V14.01,2013-01-28 05:03:00,
2013-01-28 00:08:00,13.1,6.7,30.30,SSE,155,0.0,0.0,75,0.00,,SCT110,0.00,VWS V14.01,2013-01-28 05:08:00,
2013-01-28 00:13:00,13.2,6.8,30.30,SSE,155,0.0,0.0,75,0.00,,SCT110,0.00,VWS V14.01,2013-01-28 05:13:00,
2013-01-28 00:18:00,13.2,7.1,30.30,SSE,155,0.0,0.0,76,0.00,,SCT110,0.00,VWS V14.01,2013-01-28 05:18:00,
2013-01-28 00:23:00,13.4,7.3,30.30,SSE,155,0.0,0.0,76,0.00,,SCT110,0.00,VWS V14.01,2013-01-28 05:23:00,
2013-01-28 00:28:00,13.6,7.7,30.30,SSE,155,0.0,0.0,77,0.00,,SCT110,0.00,VWS V14.01,2013-01-28 05:28:00,
2013-01-28 00:33:00,13.9,8.0,30.30,SSE,155,0.0,0.0,77,0.00,,SCT110,0.00,VWS V14.01,2013-01-28 05:33:00,
2013-01-28 00:38:00,14.0,8.1,30.30,SSE,155,0.0,0.0,77,0.00,,SCT110,0.00,VWS V14.01,2013-01-28 05:38:00,
2013-01-28 00:43:00,14.2,8.0,30.29,SSE,155,0.0,0.0,76,0.00,,SCT110,0.00,VWS V14.01,2013-01-28 05:43:00,
2013-01-28 00:48:00,14.3,8.1,30.29,SSE,155,0.0,0.0,76,0.00,,SCT110,0.00,VWS V14.01,2013-01-28 05:48:00,
2013-01-28 00:53:00,14.5,7.7,30.29,SSE,155,0.0,0.0,74,0.00,,SCT110,0.00,VWS V14.01,2013-01-28 05:53:00,
2013-01-28 00:58:00,14.5,7.7,30.28,SSE,155,0.0,0.0,74,0.00,,SCT110,0.00,VWS V14.01,2013-01-28 05:58:00,
2013-01-28 01:03:00,14.6,7.5,30.29,SSE,155,0.0,0.0,73,0.00,,OVC120,0.00,VWS V14.01,2013-01-28 06:03:00,
2013-01-28 01:08:00,14.6,7.8,30.29,SSE,155,0.0,0.0,74,0.00,,OVC120,0.00,VWS V14.01,2013-01-28 06:08:00,
2013-01-28 01:13:00,14.7,8.2,30.29,SSE,155,0.0,0.0,75,0.00,,OVC120,0.00,VWS V14.01,2013-01-28 06:13:00,
2013-01-28 01:18:00,14.7,8.2,30.29,SSE,155,0.0,0.0,75,0.00,,OVC120,0.00,VWS V14.01,2013-01-28 06:18:00,
2013-01-28 01:23:00,14.8,8.6,30.29,SSE,155,0.0,0.0,76,0.00,,OVC120,0.00,VWS V14.01,2013-01-28 06:23:00,
2013-01-28 01:28:00,14.8,8.6,30.29,SSE,155,0.0,0.0,76,0.00,,OVC120,0.00,VWS V14.01,2013-01-28 06:28:00,
2013-01-28 01:33:00,14.9,9.0,30.29,SSE,155,0.0,0.0,77,0.00,,OVC120,0.00,VWS V14.01,2013-01-28 06:33:00,
2013-01-28 01:38:00,15.0,9.1,30.29,SSE,155,0.0,0.0,77,0.00,,OVC120,0.00,VWS V14.01,2013-01-28 06:38:00,
2013-01-28 01:43:00,15.0,9.1,30.30,SSE,155,0.0,0.0,77,0.00,,OVC120,0.00,VWS V14.01,2013-01-28 06:43:00,
2013-01-28 01:48:00,15.1,9.2,30.29,SSE,155,0.0,0.0,77,0.00,,OVC120,0.00,VWS V14.01,2013-01-28 06:48:00,
2013-01-28 01:53:00,15.1,9.2,30.30,SSE,155,0.0,0.0,77,0.00,,OVC120,0.00,VWS V14.01,2013-01-28 06:53:00,
2013-01-28 01:58:00,15.2,9.3,30.30,SSE,155,0.0,0.0,77,0.00,,OVC120,0.00,VWS V14.01,2013-01-28 06:58:00,
2013-01-28 02:03:00,15.2,9.3,30.29,SSE,155,0.0,0.0,77,0.00,,FEW120,0.00,VWS V14.01,2013-01-28 07:03:00,
2013-01-28 02:08:00,15.2,9.3,30.29,SSE,155,0.0,0.0,77,0.00,,FEW120,0.00,VWS V14.01,2013-01-28 07:08:00,
2013-01-28 02:13:00,15.1,9.2,30.29,SSE,155,0.0,0.0,77,0.00,,FEW120,0.00,VWS V14.01,2013-01-28 07:13:00,
2013-01-28 02:18:00,15.0,9.1,30.30,SSE,155,0.0,0.0,77,0.00,,FEW120,0.00,VWS V14.01,2013-01-28 07:18:00,
2013-01-28 02:23:00,15.0,9.1,30.30,SSE,155,0.0,0.0,77,0.00,,FEW120,0.00,VWS V14.01,2013-01-28 07:23:00,
2013-01-28 02:28:00,14.9,9.0,30.29,SSE,155,0.0,0.0,77,0.00,,FEW120,0.00,VWS V14.01,2013-01-28 07:28:00,
2013-01-28 02:33:00,14.9,9.0,30.29,SSE,155,0.0,0.0,77,0.00,,FEW120,0.00,VWS V14.01,2013-01-28 07:33:00,
2013-01-28 02:38:00,14.9,9.0,30.29,SSE,155,0.0,0.0,77,0.00,,FEW120,0.00,VWS V14.01,2013-01-28 07:38:00,
2013-01-28 02:43:00,14.8,8.9,30.29,SSE,155,0.0,0.0,77,0.00,,FEW120,0.00,VWS V14.01,2013-01-28 07:43:00,
2013-01-28 02:48:00,14.8,8.9,30.29,SSE,155,0.0,0.0,77,0.00,,FEW120,0.00,VWS V14.01,2013-01-28 07:48:00,
2013-01-28 02:53:00,14.8,8.9,30.29,SSE,155,0.0,0.0,77,0.00,,FEW120,0.00,VWS V14.01,2013-01-28 07:53:00,
2013-01-28 02:58:00,14.7,8.8,30.29,SSE,155,0.0,0.0,77,0.00,,FEW120,0.00,VWS V14.01,2013-01-28 07:58:00,
2013-01-28 03:03:00,14.6,9.0,30.28,SSE,155,0.0,0.0,78,0.00,,BKN070,0.00,VWS V14.01,2013-01-28 08:03:00,
2013-01-28 03:08:00,14.6,9.0,30.28,SSE,155,0.0,0.0,78,0.00,,BKN070,0.00,VWS V14.01,2013-01-28 08:08:00,
2013-01-28 03:13:00,14.6,9.0,30.29,SSE,155,0.0,0.0,78,0.00,,BKN070,0.00,VWS V14.01,2013-01-28 08:13:00,
2013-01-28 03:18:00,14.6,9.0,30.29,SSE,155,0.0,0.0,78,0.00,,BKN070,0.00,VWS V14.01,2013-01-28 08:18:00,
2013-01-28 03:23:00,14.6,9.0,30.28,SSE,155,0.0,0.0,78,0.00,,BKN070,0.00,VWS V14.01,2013-01-28 08:23:00,
2013-01-28 03:28:00,14.6,9.0,30.28,SSE,155,0.0,0.0,78,0.00,,BKN070,0.00,VWS V14.01,2013-01-28 08:28:00,
2013-01-28 03:33:00,14.8,9.5,30.27,SSE,155,0.0,0.0,79,0.00,,BKN070,0.00,VWS V14.01,2013-01-28 08:33:00,
2013-01-28 03:38:00,15.1,10.1,30.27,SSE,155,0.0,0.0,80,0.00,,BKN070,0.00,VWS V14.01,2013-01-28 08:38:00,
2013-01-28 03:43:00,15.3,10.2,30.27,SSE,155,0.0,0.0,80,0.00,,BKN070,0.00,VWS V14.01,2013-01-28 08:43:00,
2013-01-28 03:48:00,15.6,10.3,30.27,SSE,155,0.0,0.0,79,0.00,,BKN070,0.00,VWS V14.01,2013-01-28 08:48:00,
2013-01-28 03:53:00,15.9,10.6,30.27,SSE,155,0.0,0.0,79,0.00,,BKN070,0.00,VWS V14.01,2013-01-28 08:53:00,
2013-01-28 03:58:00,16.1,10.8,30.27,SSE,155,0.0,0.0,79,0.00,,BKN070,0.00,VWS V14.01,2013-01-28 08:58:00,
2013-01-28 04:03:00,16.3,11.2,30.27,SSE,155,0.0,0.0,80,0.00,,BKN065,0.00,VWS V14.01,2013-01-28 09:03:00,
2013-01-28 04:08:00,16.4,11.0,30.27,SSE,155,0.0,0.0,79,0.00,,BKN065,0.00,VWS V14.01,2013-01-28 09:08:00,
2013-01-28 04:13:00,16.5,10.9,30.27,SSE,155,0.0,0.0,78,0.00,,BKN065,0.00,VWS V14.01,2013-01-28 09:13:00,
2013-01-28 04:18:00,16.7,11.1,30.27,SSE,155,0.0,0.0,78,0.00,,BKN065,0.00,VWS V14.01,2013-01-28 09:18:00,
2013-01-28 04:23:00,16.8,10.9,30.27,SSE,155,0.0,0.0,77,0.00,,BKN065,0.00,VWS V14.01,2013-01-28 09:23:00,
2013-01-28 04:28:00,16.8,10.9,30.26,SSE,155,0.0,0.0,77,0.00,,BKN065,0.00,VWS V14.01,2013-01-28 09:28:00,
2013-01-28 04:33:00,16.7,10.5,30.26,SSE,155,0.0,0.0,76,0.00,,BKN065,0.00,VWS V14.01,2013-01-28 09:33:00,
2013-01-28 04:38:00,16.7,10.2,30.27,SSE,155,0.0,0.0,75,0.00,,BKN065,0.00,VWS V14.01,2013-01-28 09:38:00,
2013-01-28 04:43:00,16.7,9.9,30.26,SSE,155,0.0,0.0,74,0.00,,BKN065,0.00,VWS V14.01,2013-01-28 09:43:00,
2013-01-28 04:48:00,16.7,9.3,30.26,SSE,155,0.0,0.0,72,0.00,,BKN065,0.00,VWS V14.01,2013-01-28 09:48:00,
2013-01-28 04:53:00,16.8,9.0,30.26,SSE,155,0.0,0.0,71,0.00,,BKN065,0.00,VWS V14.01,2013-01-28 09:53:00,
2013-01-28 04:58:00,17.0,8.9,30.26,SSE,155,0.0,0.0,70,0.00,,CLR,0.00,VWS V14.01,2013-01-28 09:58:00,
2013-01-28 05:03:00,17.0,8.9,30.26,SSE,155,0.0,0.0,70,0.00,,CLR,0.00,VWS V14.01,2013-01-28 10:03:00,
2013-01-28 05:08:00,17.1,9.0,30.26,SSE,155,0.0,0.0,70,0.00,,CLR,0.00,VWS V14.01,2013-01-28 10:08:00,
2013-01-28 05:13:00,17.1,8.7,30.26,SSE,155,0.0,0.0,69,0.00,,CLR,0.00,VWS V14.01,2013-01-28 10:13:00,
2013-01-28 05:18:00,17.1,8.7,30.26,SSE,155,0.0,0.0,69,0.00,,CLR,0.00,VWS V14.01,2013-01-28 10:18:00,
2013-01-28 05:23:00,17.1,9.0,30.26,SSE,155,0.0,0.0,70,0.00,,CLR,0.00,VWS V14.01,2013-01-28 10:23:00,
2013-01-28 05:28:00,17.1,9.3,30.26,SSE,155,0.0,0.0,71,0.00,,CLR,0.00,VWS V14.01,2013-01-28 10:28:00,
2013-01-28 05:33:00,17.0,9.6,30.26,SSE,155,0.0,0.0,72,0.00,,CLR,0.00,VWS V14.01,2013-01-28 10:33:00,
2013-01-28 05:38:00,16.9,9.8,30.26,SSE,155,0.0,0.0,73,0.00,,CLR,0.00,VWS V14.01,2013-01-28 10:38:00,
2013-01-28 05:43:00,16.8,10.0,30.26,SSE,155,0.0,0.0,74,0.00,,CLR,0.00,VWS V14.01,2013-01-28 10:43:00,
2013-01-28 05:48:00,16.7,9.9,30.25,SSE,155,0.0,0.0,74,0.00,,CLR,0.00,VWS V14.01,2013-01-28 10:48:00,
2013-01-28 05:53:00,16.6,10.1,30.25,SSE,155,0.0,0.0,75,0.00,,CLR,0.00,VWS V14.01,2013-01-28 10:53:00,
2013-01-28 05:58:00,16.6,10.4,30.25,SSE,155,0.0,0.0,76,0.00,,CLR,0.00,VWS V14.01,2013-01-28 10:58:00,
2013-01-28 06:03:00,16.5,10.3,30.26,SSE,155,0.0,0.0,76,0.00,,OVC065,0.00,VWS V14.01,2013-01-28 11:03:00,
2013-01-28 06:08:00,16.5,10.6,30.26,SSE,155,0.0,0.0,77,0.00,,OVC065,0.00,VWS V14.01,2013-01-28 11:08:00,
2013-01-28 06:13:00,16.5,10.6,30.26,SSE,155,0.0,0.0,77,0.00,,OVC065,0.00,VWS V14.01,2013-01-28 11:13:00,
2013-01-28 06:18:00,16.5,10.6,30.25,SSE,155,0.0,0.0,77,0.00,,OVC065,0.00,VWS V14.01,2013-01-28 11:18:00,
2013-01-28 06:23:00,16.4,10.5,30.25,SSE,155,0.0,0.0,77,0.00,,OVC065,0.00,VWS V14.01,2013-01-28 11:23:00,
2013-01-28 06:28:00,16.4,10.5,30.25,SSE,155,0.0,0.0,77,0.00,,OVC065,0.00,VWS V14.01,2013-01-28 11:28:00,
2013-01-28 06:33:00,16.3,10.4,30.25,SSE,155,0.0,0.0,77,0.00,,OVC065,0.00,VWS V14.01,2013-01-28 11:33:00,
2013-01-28 06:38:00,16.3,10.7,30.25,SSE,155,0.0,0.0,78,0.00,,OVC065,0.00,VWS V14.01,2013-01-28 11:38:00,
2013-01-28 06:43:00,16.3,10.7,30.25,SSE,155,0.0,0.0,78,0.00,,OVC065,0.00,VWS V14.01,2013-01-28 11:43:00,
2013-01-28 06:48:00,16.3,10.7,30.25,SSE,155,0.0,0.0,78,0.00,,OVC065,0.00,VWS V14.01,2013-01-28 11:48:00,
2013-01-28 06:53:00,16.3,10.7,30.25,SSE,155,0.0,0.0,78,0.00,,OVC065,0.00,VWS V14.01,2013-01-28 11:53:00,
2013-01-28 06:58:00,16.4,11.0,30.26,SSE,155,0.0,0.0,79,0.00,,OVC065,0.00,VWS V14.01,2013-01-28 11:58:00,
2013-01-28 07:03:00,16.6,11.2,30.26,SSE,155,0.0,0.0,79,0.00,,OVC070,0.00,VWS V14.01,2013-01-28 12:03:00,
2013-01-28 07:08:00,17.0,11.3,30.25,SSE,155,0.0,0.0,78,0.00,,OVC070,0.00,VWS V14.01,2013-01-28 12:08:00,
2013-01-28 07:13:00,17.6,10.7,30.26,SSE,155,0.0,1.0,74,0.00,,OVC070,0.00,VWS V14.01,2013-01-28 12:13:00,
2013-01-28 07:18:00,18.2,10.4,30.25,SSE,155,0.0,0.0,71,0.00,,OVC070,0.00,VWS V14.01,2013-01-28 12:18:00,
2013-01-28 07:23:00,18.7,11.2,30.25,SSE,155,0.0,0.0,72,0.00,,OVC070,0.00,VWS V14.01,2013-01-28 12:23:00,
2013-01-28 07:28:00,18.9,12.0,30.25,SSE,155,0.0,0.0,74,0.00,,OVC070,0.00,VWS V14.01,2013-01-28 12:28:00,
2013-01-28 07:33:00,19.1,12.5,30.25,SSE,155,0.0,0.0,75,0.00,,OVC070,0.00,VWS V14.01,2013-01-28 12:33:00,
2013-01-28 07:38:00,19.2,12.6,30.25,SSE,155,0.0,0.0,75,0.00,,OVC070,0.00,VWS V14.01,2013-01-28 12:38:00,
2013-01-28 07:43:00,19.4,13.1,30.25,SSE,155,0.0,0.0,76,0.00,,OVC070,0.00,VWS V14.01,2013-01-28 12:43:00,
2013-01-28 07:48:00,19.5,13.2,30.25,SSE,155,0.0,0.0,76,0.00,,OVC070,0.00,VWS V14.01,2013-01-28 12:48:00,
2013-01-28 07:53:00,19.7,13.4,30.25,SSE,155,0.0,0.0,76,0.00,,OVC070,0.00,VWS V14.01,2013-01-28 12:53:00,
2013-01-28 07:58:00,19.7,13.1,30.25,SSE,155,0.0,0.0,75,0.00,,OVC085,0.00,VWS V14.01,2013-01-28 12:58:00,
2013-01-28 08:03:00,20.0,13.1,30.25,SSE,155,0.0,0.0,74,0.00,,OVC085,0.00,VWS V14.01,2013-01-28 13:03:00,
2013-01-28 08:08:00,20.3,13.0,30.25,SSE,155,0.0,0.0,73,0.00,,OVC085,0.00,VWS V14.01,2013-01-28 13:08:00,
2013-01-28 08:13:00,20.5,12.9,30.25,SSE,155,0.0,0.0,72,0.00,,OVC085,0.00,VWS V14.01,2013-01-28 13:13:00,
2013-01-28 08:18:00,20.8,12.6,30.25,SSE,155,0.0,0.0,70,0.00,,OVC085,0.00,VWS V14.01,2013-01-28 13:18:00,
2013-01-28 08:23:00,21.1,11.9,30.25,SSE,155,0.0,0.0,67,0.00,,OVC085,0.00,VWS V14.01,2013-01-28 13:23:00,
2013-01-28 08:28:00,21.4,11.8,30.25,SSE,155,0.0,0.0,66,0.00,,OVC085,0.00,VWS V14.01,2013-01-28 13:28:00,
2013-01-28 08:33:00,21.7,11.8,30.25,SSE,155,0.0,0.0,65,0.00,,OVC085,0.00,VWS V14.01,2013-01-28 13:33:00,
2013-01-28 08:38:00,22.0,12.1,30.24,SSE,155,0.0,0.0,65,0.00,,OVC085,0.00,VWS V14.01,2013-01-28 13:38:00,
2013-01-28 08:43:00,22.4,12.4,30.24,SSE,155,0.0,0.0,65,0.00,,OVC085,0.00,VWS V14.01,2013-01-28 13:43:00,
2013-01-28 08:48:00,22.7,13.1,30.24,SSE,155,0.0,0.0,66,0.00,,OVC085,0.00,VWS V14.01,2013-01-28 13:48:00,
2013-01-28 08:53:00,23.1,12.8,30.25,SSE,155,0.0,0.0,64,0.00,,OVC085,0.00,VWS V14.01,2013-01-28 13:53:00,
2013-01-28 08:58:00,23.5,12.4,30.25,SSE,155,0.0,0.0,62,0.00,,OVC085,0.00,VWS V14.01,2013-01-28 13:58:00,
2013-01-28 09:03:00,23.9,12.4,30.24,SSE,155,0.0,0.0,61,0.00,,OVC055,0.00,VWS V14.01,2013-01-28 14:03:00,
2013-01-28 09:08:00,24.1,13.0,30.24,SSE,155,0.0,0.0,62,0.00,,OVC055,0.00,VWS V14.01,2013-01-28 14:08:00,
2013-01-28 09:13:00,24.4,13.3,30.25,SSE,155,0.0,0.0,62,0.00,,OVC055,0.00,VWS V14.01,2013-01-28 14:13:00,
2013-01-28 09:18:00,24.6,13.4,30.25,SSE,155,0.0,0.0,62,0.00,,OVC055,0.00,VWS V14.01,2013-01-28 14:18:00,
2013-01-28 09:23:00,24.8,12.9,30.24,SSE,155,0.0,0.0,60,0.00,,OVC055,0.00,VWS V14.01,2013-01-28 14:23:00,
2013-01-28 09:28:00,25.1,13.2,30.25,SSE,155,0.0,0.0,60,0.00,,OVC055,0.00,VWS V14.01,2013-01-28 14:28:00,
2013-01-28 09:33:00,25.3,13.0,30.25,SSE,155,0.0,0.0,59,0.00,,OVC055,0.00,VWS V14.01,2013-01-28 14:33:00,
2013-01-28 09:38:00,25.4,13.1,30.24,SSE,155,0.0,0.0,59,0.00,,OVC055,0.00,VWS V14.01,2013-01-28 14:38:00,
2013-01-28 09:43:00,25.6,12.9,30.24,SSE,155,0.0,0.0,58,0.00,,OVC055,0.00,VWS V14.01,2013-01-28 14:43:00,
2013-01-28 09:48:00,25.7,13.8,30.24,SSE,155,0.0,0.0,60,0.00,,OVC055,0.00,VWS V14.01,2013-01-28 14:48:00,
2013-01-28 09:53:00,26.0,14.0,30.24,SSE,155,0.0,0.0,60,0.00,,OVC055,0.00,VWS V14.01,2013-01-28 14:53:00,
2013-01-28 09:58:00,26.1,13.8,30.24,SSE,155,0.0,0.0,59,0.00,,OVC055,0.00,VWS V14.01,2013-01-28 14:58:00,
2013-01-28 10:03:00,26.2,13.8,30.23,SSE,155,0.0,0.0,59,0.00,,OVC070,0.00,VWS V14.01,2013-01-28 15:03:00,
2013-01-28 10:08:00,26.3,14.3,30.24,SSE,155,0.0,0.0,60,0.00,,OVC070,0.00,VWS V14.01,2013-01-28 15:08:00,
2013-01-28 10:13:00,26.5,13.3,30.24,SSE,155,0.0,0.0,57,0.00,,OVC070,0.00,VWS V14.01,2013-01-28 15:13:00,
2013-01-28 10:18:00,26.7,13.9,30.24,SSE,155,0.0,0.0,58,0.00,,OVC070,0.00,VWS V14.01,2013-01-28 15:18:00,
2013-01-28 10:23:00,26.9,13.7,30.23,SSE,155,0.0,0.0,57,0.00,,OVC070,0.00,VWS V14.01,2013-01-28 15:23:00,
2013-01-28 10:28:00,27.0,13.4,30.23,SSE,155,0.0,0.0,56,0.00,,OVC070,0.00,VWS V14.01,2013-01-28 15:28:00,
2013-01-28 10:33:00,27.1,13.5,30.22,SSE,155,0.0,0.0,56,0.00,,OVC070,0.00,VWS V14.01,2013-01-28 15:33:00,
2013-01-28 10:38:00,27.2,14.4,30.22,SSE,155,0.0,0.0,58,0.00,,OVC070,0.00,VWS V14.01,2013-01-28 15:38:00,
2013-01-28 10:43:00,27.4,14.6,30.21,SSE,155,0.0,0.0,58,0.00,,OVC070,0.00,VWS V14.01,2013-01-28 15:43:00,
2013-01-28 10:48:00,27.6,14.0,30.21,SSE,155,0.0,0.0,56,0.00,,OVC070,0.00,VWS V14.01,2013-01-28 15:48:00,
2013-01-28 10:53:00,27.8,14.2,30.20,SSE,155,0.0,0.0,56,0.00,,OVC070,0.00,VWS V14.01,2013-01-28 15:53:00,
2013-01-28 10:58:00,28.0,14.8,30.20,SSE,155,0.0,0.0,57,0.00,,OVC070,0.00,VWS V14.01,2013-01-28 15:58:00,
2013-01-28 11:03:00,28.1,14.0,30.20,SSE,155,0.0,0.0,55,0.00,,OVC065,0.00,VWS V14.01,2013-01-28 16:03:00,
2013-01-28 11:08:00,28.2,14.1,30.20,SSE,155,0.0,0.0,55,0.00,,OVC065,0.00,VWS V14.01,2013-01-28 16:08:00,
2013-01-28 11:13:00,28.4,13.0,30.20,SSE,155,0.0,1.0,52,0.00,,OVC065,0.00,VWS V14.01,2013-01-28 16:13:00,
2013-01-28 11:17:00,28.4,12.6,30.20,SSE,155,0.0,0.0,51,0.00,,OVC065,0.00,VWS V14.01,2013-01-28 16:17:00,
2013-01-28 11:22:00,28.5,13.1,30.20,SSE,155,0.0,0.0,52,0.00,,OVC065,0.00,VWS V14.01,2013-01-28 16:22:00,
2013-01-28 11:27:00,28.7,13.8,30.19,SSE,155,0.0,0.0,53,0.00,,OVC065,0.00,VWS V14.01,2013-01-28 16:27:00,
2013-01-28 11:32:00,28.8,13.4,30.18,North,355,0.0,0.0,52,0.00,,OVC065,0.00,VWS V14.01,2013-01-28 16:32:00,
2013-01-28 11:37:00,29.0,14.0,30.18,North,355,0.0,0.0,53,0.00,,OVC065,0.00,VWS V14.01,2013-01-28 16:37:00,
2013-01-28 11:42:00,29.3,14.3,30.18,North,355,0.0,0.0,53,0.00,,OVC065,0.00,VWS V14.01,2013-01-28 16:42:00,
2013-01-28 11:47:00,29.5,14.5,30.17,North,355,0.0,0.0,53,0.00,,OVC065,0.00,VWS V14.01,2013-01-28 16:47:00,
2013-01-28 11:52:00,29.7,14.2,30.16,North,355,0.0,0.0,52,0.00,,OVC065,0.00,VWS V14.01,2013-01-28 16:52:00,
2013-01-28 11:57:00,29.8,14.8,30.15,North,355,0.0,0.0,53,0.00,,OVC065,0.00,VWS V14.01,2013-01-28 16:57:00,
2013-01-28 12:02:00,29.9,14.4,30.15,North,355,0.0,0.0,52,0.00,,OVC065,0.00,VWS V14.01,2013-01-28 17:02:00,
2013-01-28 12:07:00,30.1,13.7,30.16,North,355,0.0,0.0,50,0.00,,OVC065,0.00,VWS V14.01,2013-01-28 17:07:00,
2013-01-28 12:12:00,30.2,13.8,30.16,North,355,0.0,0.0,50,0.00,,OVC065,0.00,VWS V14.01,2013-01-28 17:12:00,
2013-01-28 12:17:00,30.4,14.0,30.16,North,355,0.0,0.0,50,0.00,,OVC065,0.00,VWS V14.01,2013-01-28 17:17:00,
2013-01-28 12:22:00,30.6,14.2,30.15,North,355,0.0,0.0,50,0.00,,OVC065,0.00,VWS V14.01,2013-01-28 17:22:00,
2013-01-28 12:27:00,30.7,14.3,30.15,North,355,0.0,0.0,50,0.00,,OVC065,0.00,VWS V14.01,2013-01-28 17:27:00,
2013-01-28 12:32:00,30.8,14.8,30.14,North,355,0.0,0.0,51,0.00,,OVC065,0.00,VWS V14.01,2013-01-28 17:32:00,
2013-01-28 12:37:00,30.8,13.9,30.13,SSE,167,0.0,0.0,49,0.00,,OVC065,0.00,VWS V14.01,2013-01-28 17:37:00,
2013-01-28 12:42:00,30.8,13.9,30.13,SSE,167,0.0,0.0,49,0.00,,OVC065,0.00,VWS V14.01,2013-01-28 17:42:00,
2013-01-28 12:47:00,30.8,14.8,30.12,SSE,167,0.0,0.0,51,0.00,,OVC065,0.00,VWS V14.01,2013-01-28 17:47:00,
2013-01-28 12:52:00,31.0,15.0,30.12,SSE,167,0.0,0.0,51,0.00,,OVC065,0.00,VWS V14.01,2013-01-28 17:52:00,
2013-01-28 12:57:00,31.0,15.0,30.12,SE,141,0.0,1.0,51,0.00,,OVC065,0.00,VWS V14.01,2013-01-28 17:57:00,
2013-01-28 13:02:00,30.8,16.1,30.13,South,171,0.0,0.0,54,0.00,,,0.00,VWS V14.01,2013-01-28 18:02:00,
2013-01-28 13:07:00,30.5,16.3,30.12,South,171,0.0,0.0,55,0.00,,,0.00,VWS V14.01,2013-01-28 18:07:00,
2013-01-28 13:12:00,30.4,16.2,30.12,SSE,160,4.0,4.0,55,0.00,,,0.00,VWS V14.01,2013-01-28 18:12:00,
2013-01-28 13:17:00,29.8,18.8,30.11,SSE,167,1.0,4.0,63,0.00,,,0.00,VWS V14.01,2013-01-28 18:17:00,
2013-01-28 13:22:00,29.2,19.6,30.10,North,9,0.0,0.0,67,0.00,,,0.00,VWS V14.01,2013-01-28 18:22:00,
2013-01-28 13:27:00,28.8,20.3,30.10,SSE,163,2.0,2.0,70,0.00,,,0.00,VWS V14.01,2013-01-28 18:27:00,
2013-01-28 13:32:00,28.4,20.9,30.09,SSE,148,1.0,1.0,73,0.00,,,0.00,VWS V14.01,2013-01-28 18:32:00,
2013-01-28 13:37:00,28.0,21.4,30.08,SSE,160,0.0,0.0,76,0.00,,,0.00,VWS V14.01,2013-01-28 18:37:00,
2013-01-28 13:42:00,27.8,21.9,30.08,SSE,160,0.0,0.0,78,0.00,,,0.00,VWS V14.01,2013-01-28 18:42:00,
2013-01-28 13:47:00,27.7,22.0,30.08,SSE,160,0.0,0.0,79,0.00,,,0.00,VWS V14.01,2013-01-28 18:47:00,
2013-01-28 13:52:00,27.6,22.2,30.07,SSE,160,0.0,0.0,80,0.00,,,0.00,VWS V14.01,2013-01-28 18:52:00,
2013-01-28 13:57:00,27.6,22.5,30.07,SSE,160,0.0,0.0,81,0.00,,,0.00,VWS V14.01,2013-01-28 18:57:00,
2013-01-28 14:02:00,27.5,22.5,30.06,SSE,160,0.0,0.0,81,0.00,,,0.00,VWS V14.01,2013-01-28 19:02:00,
2013-01-28 14:07:00,27.5,22.7,30.06,SSE,160,0.0,0.0,82,0.00,,,0.00,VWS V14.01,2013-01-28 19:07:00,
2013-01-28 14:12:00,27.4,22.6,30.06,SSE,160,0.0,0.0,82,0.00,,,0.00,VWS V14.01,2013-01-28 19:12:00,
2013-01-28 14:17:00,27.4,22.6,30.06,SSE,160,0.0,0.0,82,0.00,,,0.00,VWS V14.01,2013-01-28 19:17:00,
2013-01-28 14:22:00,27.4,22.9,30.06,SSE,160,0.0,0.0,83,0.00,,,0.00,VWS V14.01,2013-01-28 19:22:00,
2013-01-28 14:27:00,27.4,23.2,30.05,SSE,160,0.0,0.0,84,0.00,,,0.00,VWS V14.01,2013-01-28 19:27:00,
2013-01-28 14:32:00,27.4,23.2,30.05,SSE,160,0.0,0.0,84,0.00,,,0.00,VWS V14.01,2013-01-28 19:32:00,
2013-01-28 14:37:00,27.3,23.4,30.04,SSE,160,0.0,0.0,85,0.00,,,0.00,VWS V14.01,2013-01-28 19:37:00,
2013-01-28 14:42:00,27.3,23.4,30.04,SSE,160,0.0,0.0,85,0.00,,,0.00,VWS V14.01,2013-01-28 19:42:00,
2013-01-28 14:47:00,27.2,23.6,30.03,SSE,160,0.0,0.0,86,0.00,,,0.00,VWS V14.01,2013-01-28 19:47:00,
2013-01-28 14:52:00,27.2,23.6,30.03,SSE,160,0.0,0.0,86,0.00,,,0.00,VWS V14.01,2013-01-28 19:52:00,
2013-01-28 14:57:00,27.1,23.5,30.03,SSE,160,0.0,0.0,86,0.00,,,0.00,VWS V14.01,2013-01-28 19:57:00,
2013-01-28 15:02:00,27.1,23.8,30.03,SSE,160,0.0,0.0,87,0.00,,,0.00,VWS V14.01,2013-01-28 20:02:00,
2013-01-28 15:07:00,27.1,23.8,30.02,SSE,160,0.0,0.0,87,0.00,,,0.00,VWS V14.01,2013-01-28 20:07:00,
2013-01-28 15:12:00,27.1,23.8,30.02,SSE,160,0.0,0.0,87,0.00,,,0.00,VWS V14.01,2013-01-28 20:12:00,
2013-01-28 15:17:00,27.1,24.0,30.01,SSE,160,0.0,0.0,88,0.00,,,0.00,VWS V14.01,2013-01-28 20:17:00,
2013-01-28 15:22:00,27.1,24.0,30.01,SSE,160,0.0,0.0,88,0.00,,,0.00,VWS V14.01,2013-01-28 20:22:00,
2013-01-28 15:27:00,27.0,23.9,30.02,SSE,160,0.0,0.0,88,0.00,,,0.00,VWS V14.01,2013-01-28 20:27:00,
2013-01-28 15:32:00,27.0,24.2,30.01,SSE,160,0.0,0.0,89,0.00,,,0.00,VWS V14.01,2013-01-28 20:32:00,
2013-01-28 15:37:00,27.0,24.2,30.00,SSE,160,0.0,0.0,89,0.00,,,0.00,VWS V14.01,2013-01-28 20:37:00,
2013-01-28 15:42:00,26.9,24.1,30.01,SSE,160,0.0,0.0,89,0.00,,,0.00,VWS V14.01,2013-01-28 20:42:00,
2013-01-28 15:47:00,26.9,24.1,30.01,SSE,160,0.0,0.0,89,0.00,,,0.00,VWS V14.01,2013-01-28 20:47:00,
2013-01-28 15:52:00,26.9,24.1,30.01,SSE,160,0.0,0.0,89,0.00,,,0.00,VWS V14.01,2013-01-28 20:52:00,
2013-01-28 15:57:00,26.9,24.1,30.02,SSE,160,0.0,0.0,89,0.00,,,0.00,VWS V14.01,2013-01-28 20:57:00,
2013-01-28 16:02:00,26.9,24.4,30.02,SSE,160,0.0,0.0,90,0.00,,,0.00,VWS V14.01,2013-01-28 21:02:00,
2013-01-28 16:07:00,26.9,24.4,30.02,SSE,160,0.0,0.0,90,0.00,,,0.00,VWS V14.01,2013-01-28 21:07:00,
2013-01-28 16:12:00,26.9,24.4,30.02,SSE,160,0.0,0.0,90,0.00,,,0.00,VWS V14.01,2013-01-28 21:12:00,
2013-01-28 16:17:00,26.9,24.4,30.01,SSE,160,0.0,0.0,90,0.00,,,0.00,VWS V14.01,2013-01-28 21:17:00,
2013-01-28 16:22:00,26.9,24.4,30.01,SSE,160,0.0,0.0,90,0.00,,,0.00,VWS V14.01,2013-01-28 21:22:00,
2013-01-28 16:27:00,26.9,24.4,30.00,SSE,160,0.0,0.0,90,0.00,,,0.00,VWS V14.01,2013-01-28 21:27:00,
2013-01-28 16:32:00,26.9,24.4,30.00,SSE,160,0.0,0.0,90,0.00,,,0.00,VWS V14.01,2013-01-28 21:32:00,
2013-01-28 16:37:00,26.9,24.4,29.99,SSE,160,0.0,0.0,90,0.00,,,0.00,VWS V14.01,2013-01-28 21:37:00,
2013-01-28 16:42:00,26.9,24.4,29.99,SSE,160,0.0,0.0,90,0.00,,,0.00,VWS V14.01,2013-01-28 21:42:00,
2013-01-28 16:47:00,26.8,24.3,29.98,SSE,160,0.0,0.0,90,0.00,,,0.00,VWS V14.01,2013-01-28 21:47:00,
2013-01-28 16:52:00,26.7,24.2,29.98,SSE,160,0.0,0.0,90,0.00,,,0.00,VWS V14.01,2013-01-28 21:52:00,
2013-01-28 16:57:00,26.7,24.2,29.98,SSE,160,0.0,0.0,90,0.00,,,0.00,VWS V14.01,2013-01-28 21:57:00,
2013-01-28 17:02:00,26.7,24.2,29.98,SSE,160,0.0,0.0,90,0.00,,,0.00,VWS V14.01,2013-01-28 22:02:00,
2013-01-28 17:07:00,26.6,24.3,29.98,SSE,160,0.0,0.0,91,0.00,,,0.00,VWS V14.01,2013-01-28 22:07:00,
2013-01-28 17:12:00,26.6,24.3,29.98,SSE,160,0.0,0.0,91,0.00,,,0.00,VWS V14.01,2013-01-28 22:12:00,
2013-01-28 17:17:00,26.6,24.3,29.98,SSE,160,0.0,0.0,91,0.00,,,0.00,VWS V14.01,2013-01-28 22:17:00,
2013-01-28 17:22:00,26.6,24.3,29.98,SSE,160,0.0,0.0,91,0.00,,,0.00,VWS V14.01,2013-01-28 22:22:00,
2013-01-28 17:27:00,26.6,24.3,29.97,SSE,160,0.0,0.0,91,0.00,,,0.00,VWS V14.01,2013-01-28 22:27:00,
2013-01-28 17:32:00,26.5,24.2,29.96,SSE,160,0.0,0.0,91,0.00,,,0.00,VWS V14.01,2013-01-28 22:32:00,
2013-01-28 17:37:00,26.5,24.2,29.96,SSE,160,0.0,0.0,91,0.00,,,0.00,VWS V14.01,2013-01-28 22:37:00,
2013-01-28 17:42:00,26.4,24.1,29.97,SSE,160,0.0,0.0,91,0.00,,,0.00,VWS V14.01,2013-01-28 22:42:00,
2013-01-28 17:47:00,26.4,24.1,29.96,SSE,160,0.0,0.0,91,0.00,,,0.00,VWS V14.01,2013-01-28 22:47:00,
2013-01-28 17:52:00,26.3,24.0,29.96,SSE,160,0.0,0.0,91,0.00,,,0.00,VWS V14.01,2013-01-28 22:52:00,
2013-01-28 17:57:00,26.3,24.0,29.96,SSE,160,0.0,0.0,91,0.00,,,0.00,VWS V14.01,2013-01-28 22:57:00,
2013-01-28 18:02:00,26.3,24.0,29.95,SSE,160,0.0,0.0,91,0.00,,,0.00,VWS V14.01,2013-01-28 23:02:00,
2013-01-28 18:07:00,26.2,23.9,29.95,SSE,160,0.0,0.0,91,0.00,,,0.00,VWS V14.01,2013-01-28 23:07:00,
2013-01-28 18:12:00,26.2,23.9,29.95,SSE,160,0.0,0.0,91,0.00,,,0.00,VWS V14.01,2013-01-28 23:12:00,
2013-01-28 18:17:00,26.2,23.9,29.95,SSE,160,0.0,0.0,91,0.00,,,0.00,VWS V14.01,2013-01-28 23:17:00,
2013-01-28 18:22:00,26.2,23.9,29.95,SSE,160,0.0,0.0,91,0.00,,,0.00,VWS V14.01,2013-01-28 23:22:00,
2013-01-28 18:27:00,26.2,23.9,29.94,SSE,160,0.0,0.0,91,0.00,,,0.00,VWS V14.01,2013-01-28 23:27:00,
2013-01-28 18:32:00,26.3,24.0,29.95,SSE,160,0.0,0.0,91,0.00,,,0.00,VWS V14.01,2013-01-28 23:32:00,
2013-01-28 18:37:00,26.3,24.0,29.95,SSE,160,0.0,0.0,91,0.00,,,0.00,VWS V14.01,2013-01-28 23:37:00,
2013-01-28 18:42:00,26.3,24.0,29.94,SSE,160,0.0,0.0,91,0.00,,,0.00,VWS V14.01,2013-01-28 23:42:00,
2013-01-28 18:47:00,26.3,24.0,29.94,SSE,160,0.0,0.0,91,0.00,,,0.00,VWS V14.01,2013-01-28 23:47:00,
2013-01-28 18:52:00,26.2,23.9,29.94,SSE,160,0.0,0.0,91,0.00,,,0.00,VWS V14.01,2013-01-28 23:52:00,
2013-01-28 18:57:00,26.2,24.2,29.93,SSE,160,0.0,0.0,92,0.00,,,0.00,VWS V14.01,2013-01-28 23:57:00,
2013-01-28 19:02:00,26.2,24.2,29.93,SSE,160,0.0,0.0,92,0.00,,,0.00,VWS V14.01,2013-01-29 00:02:00,
2013-01-28 19:07:00,26.2,24.2,29.92,SSE,160,0.0,0.0,92,0.00,,,0.00,VWS V14.01,2013-01-29 00:07:00,
2013-01-28 19:12:00,26.2,24.2,29.93,SSE,160,0.0,0.0,92,0.00,,,0.00,VWS V14.01,2013-01-29 00:12:00,
2013-01-28 19:17:00,26.2,24.2,29.94,SSE,160,0.0,0.0,92,0.00,,,0.00,VWS V14.01,2013-01-29 00:17:00,
2013-01-28 19:22:00,26.2,24.2,29.94,SSE,160,0.0,0.0,92,0.00,,,0.00,VWS V14.01,2013-01-29 00:22:00,
2013-01-28 19:27:00,26.3,24.3,29.95,SSE,160,0.0,0.0,92,0.00,,,0.00,VWS V14.01,2013-01-29 00:27:00,
2013-01-28 19:32:00,26.3,24.3,29.94,SSE,160,0.0,0.0,92,0.00,,,0.00,VWS V14.01,2013-01-29 00:32:00,
2013-01-28 19:37:00,26.3,24.3,29.92,SSE,160,0.0,0.0,92,0.00,,,0.00,VWS V14.01,2013-01-29 00:37:00,
2013-01-28 19:42:00,26.3,24.3,29.93,SSE,160,0.0,0.0,92,0.00,,,0.00,VWS V14.01,2013-01-29 00:42:00,
2013-01-28 19:47:00,26.3,24.3,29.93,SSE,160,0.0,0.0,92,0.00,,,0.00,VWS V14.01,2013-01-29 00:47:00,
2013-01-28 19:52:00,26.4,24.4,29.94,SSE,160,0.0,0.0,92,0.00,,,0.00,VWS V14.01,2013-01-29 00:52:00,
2013-01-28 19:57:00,26.4,24.4,29.93,SSE,160,0.0,0.0,92,0.00,,,0.00,VWS V14.01,2013-01-29 00:57:00,
2013-01-28 20:02:00,26.4,24.4,29.93,SSE,160,0.0,0.0,92,0.00,,,0.00,VWS V14.01,2013-01-29 01:02:00,
2013-01-28 20:07:00,26.4,24.4,29.92,SSE,160,0.0,0.0,92,0.00,,,0.00,VWS V14.01,2013-01-29 01:07:00,
2013-01-28 20:12:00,26.4,24.4,29.92,SSE,160,0.0,0.0,92,0.00,,,0.00,VWS V14.01,2013-01-29 01:12:00,
2013-01-28 20:17:00,26.5,24.8,29.92,SSE,160,0.0,0.0,93,0.00,,,0.00,VWS V14.01,2013-01-29 01:17:00,
2013-01-28 20:22:00,26.7,25.0,29.92,SSE,160,0.0,0.0,93,0.00,,,0.00,VWS V14.01,2013-01-29 01:22:00,
2013-01-28 20:27:00,26.9,25.1,29.91,SSE,160,0.0,0.0,93,0.00,,,0.00,VWS V14.01,2013-01-29 01:27:00,
2013-01-28 20:32:00,26.9,25.1,29.91,SSE,160,0.0,0.0,93,0.00,,,0.00,VWS V14.01,2013-01-29 01:32:00,
2013-01-28 20:37:00,26.9,25.1,29.91,SSE,160,0.0,0.0,93,0.00,,,0.00,VWS V14.01,2013-01-29 01:37:00,
2013-01-28 20:42:00,27.0,25.2,29.91,SSE,160,0.0,0.0,93,0.00,,,0.00,VWS V14.01,2013-01-29 01:42:00,
2013-01-28 20:47:00,27.0,25.2,29.91,SSE,160,0.0,0.0,93,0.00,,,0.00,VWS V14.01,2013-01-29 01:47:00,
2013-01-28 20:52:00,27.0,25.2,29.90,SSE,160,0.0,0.0,93,0.00,,,0.00,VWS V14.01,2013-01-29 01:52:00,
2013-01-28 20:57:00,27.2,25.5,29.89,SSE,160,0.0,0.0,93,0.00,,,0.00,VWS V14.01,2013-01-29 01:57:00,
2013-01-28 21:02:00,27.3,25.5,29.89,SSE,160,0.0,0.0,93,0.00,,,0.00,VWS V14.01,2013-01-29 02:02:00,
2013-01-28 21:07:00,27.4,25.6,29.89,SSE,160,0.0,0.0,93,0.00,,,0.00,VWS V14.01,2013-01-29 02:07:00,
2013-01-28 21:12:00,27.3,25.5,29.89,SSE,160,0.0,0.0,93,0.00,,,0.00,VWS V14.01,2013-01-29 02:12:00,
2013-01-28 21:17:00,27.3,25.5,29.89,SSE,160,0.0,0.0,93,0.00,,,0.00,VWS V14.01,2013-01-29 02:17:00,
2013-01-28 21:22:00,27.3,25.5,29.88,SSE,160,0.0,0.0,93,0.00,,,0.00,VWS V14.01,2013-01-29 02:22:00,
2013-01-28 21:27:00,27.2,25.5,29.88,SSE,160,0.0,0.0,93,0.00,,,0.00,VWS V14.01,2013-01-29 02:27:00,
2013-01-28 21:32:00,27.1,25.4,29.89,SSE,160,0.0,0.0,93,0.00,,,0.00,VWS V14.01,2013-01-29 02:32:00,
2013-01-28 21:37:00,27.1,25.4,29.89,SSE,160,0.0,0.0,93,0.00,,,0.00,VWS V14.01,2013-01-29 02:37:00,
2013-01-28 21:42:00,27.0,25.2,29.89,SSE,160,0.0,0.0,93,0.00,,FZRA,0.00,VWS V14.01,2013-01-29 02:42:00,
2013-01-28 21:47:00,26.9,25.1,29.88,SSE,160,0.0,0.0,93,0.00,,FZRA,0.00,VWS V14.01,2013-01-29 02:47:00,
2013-01-28 21:52:00,26.9,25.1,29.88,SSE,160,0.0,0.0,93,0.00,,,0.00,VWS V14.01,2013-01-29 02:52:00,
2013-01-28 21:57:00,26.8,25.0,29.88,SSE,160,0.0,0.0,93,0.00,,,0.00,VWS V14.01,2013-01-29 02:57:00,
2013-01-28 22:02:00,26.8,25.0,29.88,SSE,160,0.0,0.0,93,0.00,,,0.00,VWS V14.01,2013-01-29 03:02:00,
2013-01-28 22:07:00,26.7,25.0,29.88,SSE,160,0.0,0.0,93,0.00,,,0.00,VWS V14.01,2013-01-29 03:07:00,
2013-01-28 22:12:00,26.7,25.0,29.87,SSE,160,0.0,0.0,93,0.00,,,0.00,VWS V14.01,2013-01-29 03:12:00,
2013-01-28 22:17:00,26.7,25.0,29.87,SSE,160,0.0,0.0,93,0.00,,,0.00,VWS V14.01,2013-01-29 03:17:00,
2013-01-28 22:22:00,26.7,25.0,29.87,SSE,160,0.0,0.0,93,0.00,,,0.00,VWS V14.01,2013-01-29 03:22:00,
2013-01-28 22:27:00,26.7,25.0,29.87,SSE,160,0.0,0.0,93,0.00,,,0.00,VWS V14.01,2013-01-29 03:27:00,
2013-01-28 22:32:00,26.6,24.9,29.87,SSE,160,0.0,0.0,93,0.00,,,0.00,VWS V14.01,2013-01-29 03:32:00,
2013-01-28 22:37:00,26.6,25.1,29.88,SSE,160,0.0,0.0,94,0.00,,,0.00,VWS V14.01,2013-01-29 03:37:00,
2013-01-28 22:42:00,26.6,25.1,29.88,SSE,160,0.0,0.0,94,0.00,,,0.00,VWS V14.01,2013-01-29 03:42:00,
2013-01-28 22:47:00,26.6,24.9,29.87,SSE,160,0.0,0.0,93,0.00,,,0.00,VWS V14.01,2013-01-29 03:47:00,
2013-01-28 22:52:00,26.5,24.8,29.87,SSE,160,0.0,0.0,93,0.00,,,0.00,VWS V14.01,2013-01-29 03:52:00,
2013-01-28 22:57:00,26.5,24.8,29.87,SSE,160,0.0,0.0,93,0.00,,,0.00,VWS V14.01,2013-01-29 03:57:00,
2013-01-28 23:02:00,26.5,24.8,29.88,SSE,160,0.0,0.0,93,0.00,,,0.00,VWS V14.01,2013-01-29 04:02:00,
2013-01-28 23:07:00,26.5,24.8,29.88,SSE,160,0.0,0.0,93,0.00,,,0.00,VWS V14.01,2013-01-29 04:07:00,
2013-01-28 23:12:00,26.6,24.9,29.88,SSE,160,0.0,0.0,93,0.00,,,0.00,VWS V14.01,2013-01-29 04:12:00,
2013-01-28 23:17:00,26.6,24.9,29.88,SSE,160,0.0,0.0,93,0.00,,,0.00,VWS V14.01,2013-01-29 04:17:00,
2013-01-28 23:22:00,26.5,24.8,29.88,SSE,160,0.0,0.0,93,0.00,,,0.00,VWS V14.01,2013-01-29 04:22:00,
2013-01-28 23:27:00,26.6,25.1,29.88,SSE,160,0.0,0.0,94,0.00,,,0.00,VWS V14.01,2013-01-29 04:27:00,
2013-01-28 23:32:00,26.6,25.1,29.87,SSE,160,0.0,0.0,94,0.00,,,0.00,VWS V14.01,2013-01-29 04:32:00,
2013-01-28 23:37:00,26.6,25.1,29.87,SSE,160,0.0,0.0,94,0.00,,,0.00,VWS V14.01,2013-01-29 04:37:00,
2013-01-28 23:42:00,26.6,25.1,29.87,SSE,160,0.0,0.0,94,0.00,,,0.00,VWS V14.01,2013-01-29 04:42:00,
2013-01-28 23:47:00,26.6,25.1,29.87,SSE,160,0.0,0.0,94,0.00,,,0.00,VWS V14.01,2013-01-29 04:47:00,
2013-01-28 23:52:00,26.6,25.1,29.86,SSE,160,0.0,0.0,94,0.00,,,0.00,VWS V14.01,2013-01-29 04:52:00,
2013-01-28 23:57:00,26.6,25.1,29.86,SSE,160,0.0,0.0,94,0.00,,,0.00,VWS V14.01,2013-01-29 04:57:00,